Flag for Comoros Weather past 2 weeks in Mutsamudu, Comoros

Now
77 °F

Passing clouds.


Feels Like: 79 °F
Forecast: 71 / 77 °F
Wind: 2 mph from North

Location: Dzaoudzi / Pamanzi Mayotte

Current Time: Sep 22, 2014 at 7:32:50 AM

Latest Report: Sep 22, 2014 at 7:00 AM


Visibility: N/A

Pressure: 30.04 "Hg

Humidity: 79%

Dew point: 70 °F

Location of MutsamuduLocation

Historic Weather in Mutsamudu — Graph

°F

Mutsamudu temperature yesterday

Maximum temperature yesterday: 84 °F (at 11:00 AM)
Minimum temperature yesterday: 72 °F (at 12:00 AM)
Average temperature yesterday: 78 °F

Past Weeks' High & Low Weather Summary

 TemperatureHumidityPressure
High86 °F (Sep 7, 11:30 AM)94% (Sep 10, 4:30 AM)30.12 "Hg (Sep 10, 4:30 AM)
Low70 °F (Sep 10, 4:30 AM)55% (Sep 7, 12:00 PM)29.95 "Hg (Sep 17, 3:00 AM)
Average78 °F75%30.03 "Hg
* Reported Sep 7 6:00 AM — Sep 22 6:00 AM, Mutsamudu, Weather by CustomWeather, © 2014

Note: Actual official high and low records may vary slightly from our data, if they occured in-between our weather recording intervals... More about our weather records

Advertising

Mutsamudu weather history for previous 24 hours

 ConditionsComfort  
Time TempWeatherWind HumidityBarometerVisibility
6:00 AM
Sep 22
73 °FPassing clouds.3 mph89%30.04 "HgN/A
5:30 AM73 °FPassing clouds.3 mph83%30.01 "HgN/A
5:00 AM73 °FClear.3 mph83%30.01 "Hg10 mi
4:30 AM75 °FMild.6 mph83%30.01 "HgN/A
4:00 AM75 °FPassing clouds.7 mph83%30.01 "HgN/A
3:00 AM73 °FMild.No wind78%29.98 "HgN/A
2:30 AM73 °FMild.No wind78%29.98 "HgN/A
2:00 AM75 °FMild.9 mph89%29.98 "HgN/A
1:30 AM75 °FMild.8 mph89%29.98 "HgN/A
1:00 AM75 °FMild.7 mph89%29.98 "HgN/A
12:30 AM75 °FMild.6 mph83%29.98 "HgN/A
12:00 AM75 °FMild.6 mph83%30.01 "HgN/A
11:30 PM
Sep 21
75 °FMild.3 mph83%30.01 "HgN/A
11:00 PM75 °FMild.3 mph83%30.01 "HgN/A
10:30 PM75 °FMild.5 mph83%30.04 "HgN/A
10:00 PM75 °FMild.3 mph83%30.01 "HgN/A
9:30 PM75 °FMild.2 mph83%30.04 "HgN/A
9:00 PM75 °FMild.3 mph83%30.04 "HgN/A
8:30 PM77 °FWarm.3 mph79%30.04 "HgN/A
8:00 PM77 °FWarm.6 mph79%30.01 "HgN/A
7:30 PM77 °FWarm.6 mph79%30.01 "HgN/A
7:00 PM77 °FWarm.8 mph79%30.01 "HgN/A
6:30 PM79 °FPassing clouds.8 mph74%29.98 "HgN/A
6:00 PM79 °FPassing clouds.8 mph74%29.98 "HgN/A
5:30 PM79 °FPassing clouds.9 mph74%29.98 "HgN/A
5:00 PM81 °FPassing clouds.8 mph74%29.98 "HgN/A
4:30 PM81 °FPassing clouds.9 mph70%29.98 "HgN/A
4:00 PM82 °FPassing clouds.8 mph70%29.98 "HgN/A
3:30 PM82 °FPassing clouds.8 mph70%29.95 "HgN/A
3:00 PM84 °FPassing clouds.8 mph62%29.95 "HgN/A
2:30 PM82 °FPassing clouds.9 mph66%29.98 "HgN/A
2:00 PM82 °FPassing clouds.10 mph66%29.98 "HgN/A
1:30 PM82 °FPassing clouds.10 mph62%29.98 "HgN/A
1:04 PM84 °FPassing clouds.10 mph62%29.98 "HgN/A
12:34 PM84 °FScattered clouds.9 mph62%30.01 "HgN/A
12:00 PM84 °FScattered clouds.9 mph62%30.01 "HgN/A
11:30 AM84 °FScattered clouds.10 mph62%30.04 "HgN/A
11:00 AM84 °FScattered clouds.10 mph62%30.04 "HgN/A
9:37 AM82 °FPassing clouds.10 mph66%30.04 "HgN/A
9:00 AM82 °FPassing clouds.10 mph66%30.04 "HgN/A
8:00 AM81 °FPassing clouds.10 mph66%30.04 "HgN/A
7:30 AM81 °FPassing clouds.9 mph66%30.04 "HgN/A
7:00 AM79 °FPassing clouds.8 mph70%30.04 "HgN/A
Weather by CustomWeather, © 2014

See weather overviewHow to use our weather pages